Van Vleck, TX

1:19 AM CDT on August 27, 2016 (GMT -0500)
Bay City

Weather History for KBYY - September, 2012

Change the Weather History Date:

Saturday, September 1, 2012

  Actual Average (KLBX) Record (KLBX)
Temperature  
Mean Temperature 84 °F -  
Max Temperature 90 °F 87 °F 100 °F (2000)
Min Temperature 77 °F 72 °F 68 °F (2004)
Cooling Degree Days 18    
Growing Degree Days 34 (Base 50)    
Moisture  
Dew Point 79 °F    
Average Humidity 92    
Maximum Humidity 100    
Minimum Humidity 69    
Precipitation  
Precipitation 0.59 in - - ()
Sea Level Pressure  
Sea Level Pressure 30.04 in    
Wind  
Wind Speed 5 mph (SSE)    
Max Wind Speed 20 mph    
Max Gust Speed 26 mph    
Visibility 9 miles    
Events Rain    
Averages and records for this station are not official NWS values.
T = Trace of Precipitation, MM = Missing Value Source: NWS Daily Summary

Daily Weather History Graph

Daily Weather History Graph

Search for Another Location

Airport or City:

Trip Planner

Search our weather history database for the weather conditions in past years. The results will help you decide how hot, cold, wet, or windy it might be!

Date:

Astronomy

Sep. 01, 2012 Rise Set
Actual Time 7:01 AM CDT 7:44 PM CDT
Civil Twilight 6:37 AM CDT 8:08 PM CDT
Nautical Twilight 6:09 AM CDT 8:36 PM CDT
Astronomical Twilight 5:40 AM CDT 9:05 PM CDT
Moon 8:14 PM CDT (9/1) 7:59 AM CDT (9/1)
Length of Visible Light 13h 31m
Length of Day
12h 42m
Full, 99% of the Moon is Illuminated
Sep 1
Full
Sep 8
Last Quarter
Sep 15
New
Sep 22
First Quarter
Sep 29
Full

Hourly Weather History & Observations

Time (CDT) Temp. Heat Index Dew Point Humidity Pressure Visibility Wind Dir Wind Speed Gust Speed Precip Events Conditions
12:15 AM 81.7 °F 93.3 °F 81.7 °F 100% 30.01 in 10.0 mi SSE 4.6 mph - N/A   Clear
12:35 AM 81.7 °F 93.3 °F 81.7 °F 100% 30.01 in 10.0 mi SSE 5.8 mph - N/A   Clear
12:55 AM 82.2 °F 95.4 °F 82.2 °F 100% 30.01 in 10.0 mi South 5.8 mph - N/A   Scattered Clouds
1:15 AM 82.6 °F 96.4 °F 82.4 °F 99% 30.01 in 10.0 mi South 5.8 mph - N/A   Scattered Clouds
1:35 AM 82.8 °F 96.8 °F 82.0 °F 98% 30.01 in 10.0 mi SSE 6.9 mph - N/A   Scattered Clouds
1:55 AM 82.6 °F 96.1 °F 81.9 °F 98% 30.01 in 10.0 mi SSE 3.5 mph - N/A   Scattered Clouds
2:15 AM 82.6 °F 96.4 °F 82.4 °F 99% 30.01 in 10.0 mi SSE 3.5 mph - N/A   Mostly Cloudy
2:35 AM 82.4 °F 96.1 °F 82.4 °F 100% 30.01 in 10.0 mi SSE 4.6 mph - N/A   Scattered Clouds
2:55 AM 82.0 °F 94.7 °F 82.0 °F 100% 30.01 in 10.0 mi Calm Calm - N/A   Scattered Clouds
3:15 AM 81.5 °F 92.6 °F 81.5 °F 100% 30.01 in 10.0 mi SE 4.6 mph - N/A   Scattered Clouds
3:35 AM 81.3 °F 92.0 °F 81.3 °F 100% 30.01 in 10.0 mi SSE 3.5 mph - N/A   Clear
3:55 AM 81.3 °F 92.0 °F 81.3 °F 100% 30.01 in 10.0 mi South 3.5 mph - N/A   Clear
4:15 AM 81.1 °F 91.3 °F 81.1 °F 100% 30.01 in 7.0 mi Calm Calm - N/A Rain Heavy Rain
4:35 AM 80.8 °F 90.0 °F 80.8 °F 100% 30.01 in 5.0 mi SSW 6.9 mph - 0.07 in Rain Heavy Rain
4:55 AM 79.9 °F - 79.9 °F 100% 30.02 in 4.0 mi SW 15.0 mph 23.0 mph 0.15 in Rain Heavy Rain
5:15 AM 79.0 °F - 79.0 °F 100% 30.02 in 10.0 mi South 4.6 mph - N/A   Mostly Cloudy
5:35 AM 79.0 °F - 79.0 °F 100% 30.03 in 10.0 mi Calm Calm - N/A   Scattered Clouds
5:55 AM 79.2 °F - 79.2 °F 100% 30.03 in 10.0 mi South 4.6 mph - 0.02 in   Mostly Cloudy
6:15 AM 79.5 °F - 79.5 °F 100% 30.03 in 10.0 mi SE 4.6 mph - N/A   Scattered Clouds
6:35 AM 79.2 °F - 79.2 °F 100% 30.03 in 10.0 mi South 3.5 mph - N/A   Clear
6:55 AM 78.8 °F - 78.8 °F 100% 30.03 in 10.0 mi SSE 4.6 mph - N/A   Clear
7:15 AM 79.7 °F - 79.7 °F 100% 30.04 in 10.0 mi SSE 4.6 mph - N/A   Clear
7:35 AM 79.9 °F - 79.9 °F 100% 30.05 in 10.0 mi SSE 4.6 mph - N/A   Clear
7:55 AM 80.2 °F 88.0 °F 80.2 °F 100% 30.06 in 7.0 mi Calm Calm - N/A   Clear
8:15 AM 81.5 °F 92.6 °F 81.5 °F 100% 30.06 in 7.0 mi Calm Calm - N/A   Clear
8:35 AM 83.8 °F 101.5 °F 83.5 °F 99% 30.06 in 7.0 mi SSE 4.6 mph - N/A   Clear
8:55 AM 85.8 °F 104.6 °F 82.6 °F 90% 30.06 in 10.0 mi South 6.9 mph - N/A   Clear
9:15 AM 86.9 °F 103.2 °F 80.6 °F 81% 30.07 in 10.0 mi South 6.9 mph - N/A   Scattered Clouds
9:35 AM 87.1 °F 102.1 °F 79.5 °F 78% 30.06 in 10.0 mi SSE 8.1 mph - N/A   Scattered Clouds
9:55 AM 87.8 °F 102.5 °F 79.0 °F 75% 30.08 in 10.0 mi SSE 8.1 mph - N/A   Scattered Clouds
10:15 AM 87.6 °F 102.0 °F 79.0 °F 75% 30.08 in 10.0 mi South 9.2 mph - N/A   Scattered Clouds
10:35 AM 90.0 °F 105.8 °F 79.2 °F 70% 30.08 in 7.0 mi South 11.5 mph 16.1 mph N/A   Scattered Clouds
10:55 AM 87.8 °F 100.8 °F 77.7 °F 72% 30.10 in 5.0 mi SW 19.6 mph 26.5 mph 0.01 in Rain Heavy Rain
11:15 AM 79.3 °F - 75.9 °F 89% 30.11 in 2.5 mi West 10.4 mph - 0.13 in Rain Heavy Rain
11:35 AM 77.7 °F - 77.7 °F 100% 30.09 in 5.0 mi NW 3.5 mph - 0.17 in Rain Light Rain
11:55 AM 82.9 °F 93.4 °F 78.8 °F 87% 30.09 in 10.0 mi SSW 6.9 mph - 0.17 in   Scattered Clouds
12:15 PM 83.8 °F 94.3 °F 77.7 °F 82% 30.09 in 7.0 mi West 11.5 mph 16.1 mph 0.01 in Rain Rain
12:35 PM 81.5 °F 90.7 °F 79.3 °F 93% 30.09 in 10.0 mi West 8.1 mph - 0.01 in   Overcast
12:55 PM 81.1 °F 88.4 °F 77.4 °F 88% 30.11 in 10.0 mi WSW 12.7 mph 21.9 mph 0.01 in   Overcast
1:15 PM 78.3 °F - 76.8 °F 95% 30.11 in 2.0 mi WSW 13.8 mph 20.7 mph 0.18 in Rain Light Rain
1:35 PM 77.2 °F - 77.2 °F 100% 30.10 in 5.0 mi West 10.4 mph - 0.23 in Rain Light Rain
1:55 PM 77.9 °F - 77.9 °F 100% 30.09 in 10.0 mi West 4.6 mph - 0.23 in   Clear
2:15 PM 78.6 °F - 78.6 °F 100% 30.08 in 10.0 mi Calm Calm - N/A   Scattered Clouds
2:35 PM 79.3 °F - 79.3 °F 100% 30.08 in 10.0 mi South 4.6 mph - N/A Rain Light Rain
2:55 PM 80.6 °F 88.9 °F 79.9 °F 98% 30.07 in 10.0 mi South 3.5 mph - N/A   Clear
3:15 PM 81.9 °F 91.9 °F 79.5 °F 93% 30.07 in 10.0 mi Calm Calm - N/A   Clear
3:35 PM 82.9 °F 93.1 °F 78.4 °F 86% 30.06 in 10.0 mi Calm Calm - N/A   Clear
3:55 PM 84.2 °F 94.5 °F 77.4 °F 80% 30.05 in 10.0 mi Calm Calm - N/A   Clear
4:15 PM 86.0 °F 97.8 °F 77.7 °F 76% 30.05 in 10.0 mi SSE 6.9 mph - N/A   Mostly Cloudy
4:35 PM 86.5 °F 100.4 °F 78.8 °F 78% 30.05 in 10.0 mi South 9.2 mph - N/A   Scattered Clouds
4:55 PM 87.3 °F 99.8 °F 77.5 °F 73% 30.04 in 10.0 mi South 6.9 mph - N/A   Scattered Clouds
5:15 PM 87.3 °F 98.2 °F 76.5 °F 70% 30.04 in 10.0 mi South 5.8 mph - N/A   Clear
5:35 PM 87.1 °F 97.3 °F 75.7 °F 69% 30.04 in 10.0 mi South 6.9 mph - N/A   Clear
5:55 PM 87.1 °F 98.3 °F 76.6 °F 71% 30.03 in 10.0 mi SSE 6.9 mph - N/A   Clear
6:15 PM 86.7 °F 98.3 °F 77.2 °F 73% 30.03 in 10.0 mi SSE 10.4 mph - N/A   Clear
6:35 PM 86.2 °F 98.3 °F 77.7 °F 76% 30.03 in 10.0 mi SSE 5.8 mph - N/A   Clear
6:55 PM 85.8 °F 97.8 °F 77.9 °F 77% 30.02 in 10.0 mi SSE 4.6 mph - N/A   Clear
7:15 PM 85.3 °F 97.2 °F 78.3 °F 79% 30.01 in 10.0 mi ESE 4.6 mph - N/A   Clear
7:35 PM 84.4 °F 96.3 °F 78.6 °F 83% 30.00 in 10.0 mi East 3.5 mph - N/A   Clear
7:55 PM 83.1 °F 95.8 °F 80.4 °F 92% 30.00 in 10.0 mi Calm Calm - N/A   Clear
8:15 PM 82.2 °F 95.4 °F 82.2 °F 100% 30.01 in 10.0 mi Calm Calm - N/A   Clear
8:35 PM 81.3 °F 92.0 °F 81.3 °F 100% 30.01 in 10.0 mi ESE 4.6 mph - N/A   Clear
8:55 PM 78.8 °F - 78.8 °F 100% 30.02 in 10.0 mi ESE 3.5 mph - N/A   Clear
9:15 PM 80.1 °F 87.4 °F 80.1 °F 100% 30.03 in 10.0 mi ESE 3.5 mph - N/A   Clear
9:35 PM 80.1 °F 87.4 °F 80.1 °F 100% 30.03 in 10.0 mi ESE 3.5 mph - N/A   Clear
9:55 PM 79.7 °F - 79.7 °F 100% 30.03 in 10.0 mi SE 4.6 mph - N/A   Clear
10:15 PM 79.7 °F - 79.7 °F 100% 30.03 in 10.0 mi ESE 3.5 mph - N/A   Clear
10:35 PM 79.5 °F - 79.5 °F 100% 30.03 in 10.0 mi ESE 3.5 mph - N/A   Clear
10:55 PM 78.8 °F - 78.8 °F 100% 30.03 in 10.0 mi East 3.5 mph - N/A   Clear
11:15 PM 79.2 °F - 79.2 °F 100% 30.03 in 10.0 mi SE 3.5 mph - N/A   Clear
11:35 PM 79.0 °F - 79.0 °F 100% 30.04 in 10.0 mi Calm Calm - N/A   Clear
11:55 PM 79.0 °F - 79.0 °F 100% 30.03 in 10.0 mi SSE 3.5 mph - N/A   Clear